Terminal Aerodrome Forecast
Issued by NWS New Orleans/Baton Rouge, LA

Home | Current Version | Previous Version | Text Only | Print | Product List | Glossary On
Versions: 1 2 3 4 5 6 7 8 9 10 11 12 13 14 15 16 17 18 19 20 21 22 23 24 25 26 27 28 29 30 31 32 33 34 35 36
000
FTUS44 KLIX 241100 RRA
TAFNEW
TAF
KNEW 241144Z 2412/2512 23012KT 5SM BR SCT005 BKN011
      TEMPO 2412/2414 2SM BR BKN006
     FM241400 29011KT P6SM SCT015
     FM241800 31012KT P6SM FEW250
     FM250600 35016G22KT P6SM FEW250=

USA.gov is the U.S. government's official web portal to all federal, state and local government web resources and services.